Location: Temiskaming Shores
(47.4794°N, 79.7121°W)
Time: 06:06:59
(UTC-04:00)

ISS - Visible Passes

Search period start: 07 July 2020 00:00
Search period end: 17 July 2020 00:00
Orbit: 417 x 421 km, 51.6° (Epoch: 07 July)

Date Brightness Start Highest point End Pass type
(mag) Time Alt. Az. Time Alt. Az. Time Alt. Az.
07 Jul -3.8 02:49:29 44° WSW 02:50:28 88° NNW 02:53:50 10° ENE visible
07 Jul -2.4 04:24:19 10° WNW 04:27:31 39° N 04:30:43 10° ENE visible
08 Jul -3.5 02:03:17 57° ESE 02:03:17 57° ESE 02:06:12 10° ENE visible
08 Jul -2.6 03:36:33 10° W 03:39:47 43° N 03:43:02 10° ENE visible
09 Jul -2.0 01:17:01 22° E 01:17:01 22° E 01:18:31 10° ENE visible
09 Jul -3.0 02:49:56 19° W 02:52:05 51° NNW 02:55:23 10° ENE visible
09 Jul -2.3 04:26:04 10° WNW 04:29:17 40° N 04:32:28 10° ENE visible
10 Jul -1.0 00:30:40 10° E 00:30:40 10° E 00:30:42 10° E visible
10 Jul -3.5 02:03:34 45° W 02:04:24 65° NNW 02:07:45 10° ENE visible
10 Jul -2.3 03:38:21 10° WNW 03:41:32 38° N 03:44:42 10° ENE visible
11 Jul -3.7 01:17:04 70° ENE 01:17:04 70° ENE 01:20:06 10° ENE visible
11 Jul -2.4 02:50:35 10° WNW 02:53:46 39° N 02:56:58 10° ENE visible
11 Jul -2.9 04:27:39 10° WNW 04:30:57 53° NNE 04:34:15 10° E visible
12 Jul -2.7 00:30:20 34° E 00:30:20 34° E 00:32:25 10° ENE visible
12 Jul -2.6 02:03:12 13° W 02:06:01 43° N 02:09:15 10° ENE visible
12 Jul -2.5 03:39:58 10° WNW 03:43:13 44° N 03:46:28 10° E visible
12 Jul -2.4 23:42:57 25° E 23:42:57 25° E 23:44:41 10° ENE visible
13 Jul -3.0 01:15:44 16° W 01:18:15 51° NNW 01:21:34 10° ENE visible
13 Jul -2.3 02:52:15 10° WNW 02:55:27 40° N 02:58:39 10° ENE visible
13 Jul -3.8 04:29:07 10° WNW 04:32:29 89° SSW 04:35:51 10° ESE visible
13 Jul -2.9 22:50:59 10° SSW 22:53:55 28° SE 22:56:50 10° E visible
14 Jul -3.4 00:27:11 10° WSW 00:30:32 66° NNW 00:33:52 10° ENE visible
14 Jul -2.3 02:04:29 10° WNW 02:07:39 38° N 02:10:51 10° ENE visible
14 Jul -3.4 03:41:25 10° WNW 03:44:47 67° NNE 03:48:08 10° ESE visible
14 Jul -2.3 22:03:59 10° S 22:06:23 18° SE 22:08:47 10° E visible
14 Jul -3.8 23:39:27 10° WSW 23:42:49 89° NNW 23:46:11 10° ENE visible
15 Jul -2.3 01:16:39 10° WNW 01:19:51 39° N 01:23:04 10° ENE visible
15 Jul -2.9 02:53:44 10° WNW 02:57:02 52° NNE 03:00:20 10° E visible
15 Jul -3.4 04:30:37 10° WNW 04:33:48 40° SW 04:36:59 10° SE visible
15 Jul -3.8 22:51:49 10° SW 22:55:08 64° SSE 22:58:29 10° ENE visible
16 Jul -2.6 00:28:49 10° W 00:32:03 44° N 00:35:18 10° ENE visible
16 Jul -2.6 02:06:00 10° WNW 02:09:15 44° N 02:12:30 10° E visible
16 Jul -3.8 03:42:51 10° WNW 03:46:10 62° SSW 03:49:29 10° SE visible
16 Jul -3.4 22:04:18 10° SW 22:07:29 42° SSE 22:10:41 10° ENE visible
16 Jul -2.9 23:40:58 10° W 23:44:15 52° NNW 23:47:34 10° ENE visible
